Tillbaka till svenska Fidonet
English   Information   Debug  
FILM   0/18
FNEWS_PUBLISH   4926
FN_SYSOP   42201
FN_SYSOP_OLD1   71952
FTP_FIDO   0/2
FTSC_PUBLIC   0/13972
FUNNY   0/4886
GENEALOGY.EUR   0/71
GET_INFO   105
GOLDED   0/408
HAM   0/16659
HOLYSMOKE   0/6791
HOT_SITES   0/1
HTMLEDIT   0/71
HUB203   466
HUB_100   264
HUB_400   39
HUMOR   0/29
IC   0/2851
INTERNET   0/424
INTERUSER   0/3
IP_CONNECT   719
JAMNNTPD   0/233
JAMTLAND   0/47
KATTY_KORNER   0/41
LAN   0/16
LINUX-USER   0/19
LINUXHELP   0/1155
LINUX   0/22300
LINUX_BBS   0/957
mail   18.68
mail_fore_ok   249
MENSA   0/341
MODERATOR   0/102
MONTE   0/992
MOSCOW_OKLAHOMA   0/1245
MUFFIN   0/783
MUSIC   0/321
N203_STAT   938
N203_SYSCHAT   313
NET203   321
NET204   69
NET_DEV   0/10
NORD.ADMIN   0/101
NORD.CHAT   0/2572
NORD.FIDONET   189
NORD.HARDWARE   0/28
NORD.KULTUR   0/114
NORD.PROG   0/32
NORD.SOFTWARE   0/88
NORD.TEKNIK   0/58
NORD   0/453
OCCULT_CHAT   0/93
OS2BBS   0/787
OS2DOSBBS   0/580
OS2HW   0/42
OS2INET   0/37
OS2LAN   0/134
OS2PROG   0/36
OS2REXX   0/113
OS2USER-L   207
OS2   0/4830
OSDEBATE   0/18996
PASCAL   0/490
PERL   0/457
PHP   0/45
POINTS   0/405
POLITICS   0/29554
POL_INC   0/14731
PSION   103
R20_ADMIN   1133
R20_AMATORRADIO   0/2
R20_BEST_OF_FIDONET   16
R20_CHAT   0/896
R20_DEPP   0/3
R20_DEV   400
R20_ECHO2   1830
R20_ECHOPRES   0/35
R20_ESTAT   0/719
R20_FIDONETPROG...
...RAM.MYPOINT
  0/2
R20_FIDONETPROGRAM   0/22
R20_FIDONET   0/248
R20_FILEFIND   0/24
R20_FILEFOUND   0/22
R20_HIFI   0/3
R20_INFO2   3722
R20_INTERNET   0/12940
R20_INTRESSE   0/60
R20_INTR_KOM   0/99
R20_KANDIDAT.CHAT   42
R20_KANDIDAT   28
R20_KOM_DEV   112
R20_KONTROLL   0/13360
R20_KORSET   0/18
R20_LOKALTRAFIK   0/24
R20_MODERATOR   0/1852
R20_NC   76
R20_NET200   245
R20_NETWORK.OTH...
...ERNETS
  0/13
R20_OPERATIVSYS...
...TEM.LINUX
  0/44
R20_PROGRAMVAROR   0/1
R20_REC2NEC   534
R20_SFOSM   0/341
R20_SF   0/108
R20_SPRAK.ENGLISH   0/1
R20_SQUISH   107
R20_TEST   2
R20_WORST_OF_FIDONET   20
RAR   0/9
RA_MULTI   106
RA_UTIL   0/162
REGCON.EUR   0/2068
REGCON   0/13
SCIENCE   0/1206
SF   0/239
SHAREWARE_SUPPORT   0/5146
SHAREWRE   0/14
SIMPSONS   0/169
STATS_OLD1   0/2539.065
STATS_OLD2   0/2530
STATS_OLD3   0/2395.095
STATS_OLD4   0/1692.25
SURVIVOR   0/495
SYSOPS_CORNER   0/3
SYSOP   0/84
TAGLINES   0/112
TEAMOS2   0/4530
TECH   0/2617
TEST.444   0/105
TRAPDOOR   0/19
TREK   0/755
TUB   0/290
UFO   0/40
UNIX   0/1316
USA_EURLINK   0/102
USR_MODEMS   0/1
VATICAN   0/2740
VIETNAM_VETS   0/14
VIRUS   0/378
VIRUS_INFO   0/201
VISUAL_BASIC   0/473
WHITEHOUSE   0/5187
WIN2000   0/101
WIN32   0/30
WIN95   0/4291
WIN95_OLD1   0/70272
WINDOWS   0/1517
WWB_SYSOP   0/419
WWB_TECH   0/810
ZCC-PUBLIC   0/1
ZEC   4

 
4DOS   0/134
ABORTION   0/7
ALASKA_CHAT   0/506
ALLFIX_FILE   0/1313
ALLFIX_FILE_OLD1   0/7997
ALT_DOS   0/152
AMATEUR_RADIO   0/1039
AMIGASALE   0/14
AMIGA   0/331
AMIGA_INT   0/1
AMIGA_PROG   0/20
AMIGA_SYSOP   0/26
ANIME   0/15
ARGUS   0/924
ASCII_ART   0/340
ASIAN_LINK   0/651
ASTRONOMY   0/417
AUDIO   0/92
AUTOMOBILE_RACING   0/105
BABYLON5   0/17862
BAG   135
BATPOWER   0/361
BBBS.ENGLISH   0/382
BBSLAW   0/109
BBS_ADS   0/5290
BBS_INTERNET   0/507
BIBLE   0/3563
BINKD   0/1119
BINKLEY   0/215
BLUEWAVE   0/2173
CABLE_MODEMS   0/25
CBM   0/46
CDRECORD   0/66
CDROM   0/20
CLASSIC_COMPUTER   0/378
COMICS   0/15
CONSPRCY   0/899
COOKING   41433
COOKING_OLD1   0/24719
COOKING_OLD2   0/40862
COOKING_OLD3   0/37489
COOKING_OLD4   0/35496
COOKING_OLD5   9370
C_ECHO   0/189
C_PLUSPLUS   0/31
DIRTY_DOZEN   0/201
DOORGAMES   0/2284
DOS_INTERNET   0/196
duplikat   6102
ECHOLIST   0/18295
EC_SUPPORT   0/318
ELECTRONICS   0/359
ELEKTRONIK.GER   1534
ENET.LINGUISTIC   0/13
ENET.POLITICS   0/4
ENET.SOFT   0/11701
ENET.SYSOP   34296
ENET.TALKS   0/32
ENGLISH_TUTOR   0/2000
EVOLUTION   0/1335
FDECHO   0/217
FDN_ANNOUNCE   0/7068
FIDONEWS   25062
FIDONEWS_OLD1   0/49742
FIDONEWS_OLD2   23151/35949
FIDONEWS_OLD3   0/30874
FIDONEWS_OLD4   0/37224
FIDO_SYSOP   12922
FIDO_UTIL   0/180
FILEFIND   0/209
FILEGATE   0/212
Möte HAM, 16659 texter
 lista första sista föregående nästa
Text 1220, 768 rader
Skriven 2006-09-09 11:56:42 av Amsat List (1:323/120.0)
Ärende: [keps]  orb06250.amsa
=============================
[keps]  orb06250.amsa

Orbital Elements  06250.OSCAR

HR AMSAT ORBITAL ELEMENTS FOR OSCAR SATELLITES
FROM WA5QGD FORT WORTH,TX September 7, 2006
Send SUBSCRIBE KEPS/UNSUBSCRIBE KEPS to majordomo@amsat.org only
BID: ORB06250.O
TO ALL RADIO AMATEURS BT

Satellite: AO-07
Catalog number: 07530
Epoch time:      06249.66898568
Element set:    0676
Inclination:      101.5610 deg
RA of node:       290.5427 deg
Eccentricity:    0.0012168
Arg of perigee:   088.1493 deg
Mean anomaly:     272.0967 deg
Mean motion:   12.53571538 rev/day
Decay rate:       -2.8e-07 rev/day^2
Epoch rev:           45559
Checksum:              335

Satellite: AO-10
Catalog number: 14129
Epoch time:      06249.40150486
Element set:     311
Inclination:      027.3317 deg
RA of node:       317.0133 deg
Eccentricity:    0.6029013
Arg of perigee:   315.3720 deg
Mean anomaly:     009.7501 deg
Mean motion:   02.05867889 rev/day
Decay rate:       -5.0e-08 rev/day^2
Epoch rev:           17472
Checksum:              269

Satellite: UO-11
Catalog number: 14781
Epoch time:      06249.61509359
Element set:    0168
Inclination:      098.2076 deg
RA of node:       261.5628 deg
Eccentricity:    0.0009536
Arg of perigee:   010.2925 deg
Mean anomaly:     349.8476 deg
Mean motion:   14.79458973 rev/day
Decay rate:       4.16e-06 rev/day^2
Epoch rev:           20780
Checksum:              337

Satellite: RS-10/11
Catalog number: 18129
Epoch time:      06249.59857817
Element set:    0095
Inclination:      082.9231 deg
RA of node:       267.9335 deg
Eccentricity:    0.0010350
Arg of perigee:   223.0975 deg
Mean anomaly:     136.9370 deg
Mean motion:   13.72777988 rev/day
Decay rate:        2.6e-07 rev/day^2
Epoch rev:           96232
Checksum:              335

Satellite: RS-15
Catalog number: 23439
Epoch time:      06249.96719557
Element set:    0974
Inclination:      064.8154 deg
RA of node:       104.9619 deg
Eccentricity:    0.0166430
Arg of perigee:   239.9712 deg
Mean anomaly:     118.4609 deg
Mean motion:   11.27551915 rev/day
Decay rate:       -3.9e-07 rev/day^2
Epoch rev:           48176
Checksum:              344

Satellite: FO-29
Catalog number: 24278
Epoch time:      06250.55556469
Element set:     312
Inclination:      098.5165 deg
RA of node:       243.7065 deg
Eccentricity:    0.0351408
Arg of perigee:   096.0459 deg
Mean anomaly:     268.0834 deg
Mean motion:   13.52923608 rev/day
Decay rate:       -5.6e-07 rev/day^2
Epoch rev:           49668
Checksum:              339

Satellite: SO-33
Catalog number: 25509
Epoch time:      06249.74305337
Element set:     737
Inclination:      031.4312 deg
RA of node:       028.2337 deg
Eccentricity:    0.0354782
Arg of perigee:   109.4464 deg
Mean anomaly:     254.4822 deg
Mean motion:   14.28115794 rev/day
Decay rate:       2.03e-06 rev/day^2
Epoch rev:           41070
Checksum:              289

Satellite: AO-40
Catalog number: 26609
Epoch time:      06247.67421211
Element set:     776
Inclination:      005.8847 deg
RA of node:       221.9825 deg
Eccentricity:    0.7967532
Arg of perigee:   198.5493 deg
Mean anomaly:     091.6004 deg
Mean motion:   01.25585834 rev/day
Decay rate:        3.0e-08 rev/day^2
Epoch rev:            2685
Checksum:              326

Satellite: VO-52
Catalog number: 28650
Epoch time:      06249.25670427
Element set:    0423
Inclination:      097.8665 deg
RA of node:       320.8295 deg
Eccentricity:    0.0028524
Arg of perigee:   097.9589 deg
Mean anomaly:     262.4850 deg
Mean motion:   14.81167793 rev/day
Decay rate:       3.67e-06 rev/day^2
Epoch rev:           07238
Checksum:              349

/EX
[keps]  orb06250.amsa

Orbital Elements  06250.MICROS

HR AMSAT ORBITAL ELEMENTS FOR THE MICROSATS
FROM WA5QGD FORT WORTH,TX September 7, 2006
Send SUBSCRIBE KEPS/UNSUBSCRIBE KEPS to majordomo@amsat.org only
BID: ORB06250.D
TO ALL RADIO AMATEURS BT

Satellite: AO-16
Catalog number: 20439
Epoch time:      06249.63660782
Element set:     838
Inclination:      098.1892 deg
RA of node:       255.0052 deg
Eccentricity:    0.0010615
Arg of perigee:   317.2687 deg
Mean anomaly:     042.7665 deg
Mean motion:   14.31731832 rev/day
Decay rate:        9.0e-08 rev/day^2
Epoch rev:           86797
Checksum:              327

Satellite: WO-18
Catalog number: 20441
Epoch time:      06249.61902379
Element set:    0039
Inclination:      098.1879 deg
RA of node:       259.6120 deg
Eccentricity:    0.0011168
Arg of perigee:   316.9289 deg
Mean anomaly:     043.1015 deg
Mean motion:   14.31801602 rev/day
Decay rate:       -2.0e-07 rev/day^2
Epoch rev:           86803
Checksum:              291

Satellite: LO-19
Catalog number: 20442
Epoch time:      06250.63117341
Element set:     774
Inclination:      098.1883 deg
RA of node:       265.4596 deg
Eccentricity:    0.0011433
Arg of perigee:   313.1179 deg
Mean anomaly:     046.9058 deg
Mean motion:   14.31974828 rev/day
Decay rate:        2.7e-07 rev/day^2
Epoch rev:           86825
Checksum:              318

Satellite: UO-22
Catalog number: 21575
Epoch time:      06250.41462734
Element set:     792
Inclination:      098.3029 deg
RA of node:       205.5661 deg
Eccentricity:    0.0006990
Arg of perigee:   176.2289 deg
Mean anomaly:     183.8945 deg
Mean motion:   14.39561418 rev/day
Decay rate:        5.0e-07 rev/day^2
Epoch rev:           79484
Checksum:              329

Satellite: KO-23
Catalog number: 22077
Epoch time:      06250.62468642
Element set:     892
Inclination:      066.0859 deg
RA of node:       289.4020 deg
Eccentricity:    0.0005879
Arg of perigee:   336.0705 deg
Mean anomaly:     024.0032 deg
Mean motion:   12.86437871 rev/day
Decay rate:       -3.7e-07 rev/day^2
Epoch rev:           66114
Checksum:              303

